Regional Weather Roundup
Issued by NWS

Home | Current Version | Previous Version | Text Only | Print | Product List | Glossary Off
Versions: 1 2 3 4 5 6 7 8 9 10 11 12 13 14 15 16 17 18 19 20 21 22 23 24 25 26 27 28

000
ASUS45 KCYS 160110
RWRWY

WYOMING REGIONAL WEATHER ROUNDUP
NATIONAL WEATHER SERVICE CHEYENNE WY
700 PM MDT TUE APR 15 2014

NOTE:  "FAIR" INDICATES FEW OR NO CLOUDS BELOW 12,000 FEET
WITH NO SIGNIFICANT WEATHER AND/OR OBSTRUCTIONS TO VISIBILITY.

WYZ001-160200-
YELLOWSTONE NATIONAL PARK

CITY           SKY/WX    TMP DP  RH WIND       PRES   REMARKS
LK YELLOWSTONE   N/A     30  24  78 VRB5      29.77R WCI  25
W YELLOWSTONE  NOT AVBL

$$
WYZ002>013-054>058-071-098>099-160200-
NORTHERN WYOMING

CITY           SKY/WX    TMP DP  RH WIND       PRES   REMARKS
JACKSON        LGT SNOW  34  32  93 MISG      29.77R
CODY           CLOUDY    39  30  70 N21G29    29.69R WCI  29
GREYBULL       CLOUDY    48  32  53 NW37G49   29.62R
WORLAND        CLOUDY    52  34  50 N5        29.57S
SHERIDAN       CLOUDY    46  35  65 N18       29.64R
BUFFALO        CLOUDY    46  30  53 N21       29.61F
GILLETTE       CLOUDY    49  30  48 NW17G23   29.59F
HULETT         CLOUDY    48  32  53 W14G21    29.62
NEWCASTLE      FAIR      55  21  26 NW14G24   29.58

$$
WYZ014>020-022>026-101>103-160200-
CENTRAL WYOMING

CITY           SKY/WX    TMP DP  RH WIND       PRES   REMARKS
BIG PINEY      CLOUDY    44  19  36 W26G33    29.78S
PINEDALE       CLOUDY    39  27  60 W28G35    29.78R WCI  28
DUBOIS         SNOW      32  30  93 NW16      29.69R VSB 1/4 WCI  21
LANDER         MOCLDY    49  26  41 SW26G40   29.63R
RIVERTON       MOCLDY    52  21  29 W28G39    29.62F
CASPER         CLOUDY    51  23  33 W12       29.58F
DOUGLAS        CLOUDY    54  27  35 W10       29.59F

$$
WYZ021-027>030-104>119-160200-
SOUTHERN WYOMING

CITY           SKY/WX    TMP DP  RH WIND       PRES   REMARKS
EVANSTON       CLOUDY    47  19  33 NW23G32   29.86R
KEMMERER       FLURRIES  36  32  87 W31G41    29.86R WCI  22
FORT BRIDGER   MOCLDY    48  22  36 NW24G35   29.85S
ROCK SPRINGS   CLOUDY    51  13  21 W24G40    29.77S
DIXON          CLOUDY    53  17  25 SW15G23   29.79S
RAWLINS        CLOUDY    51  14  22 W30G39    29.71F
SARATOGA       CLOUDY    46  19  34 W23G43    29.78R
LARAMIE        MOCLDY    45  21  38 SW15G25   29.74F
CHEYENNE       CLOUDY    52  17  25 W16       29.72F
TORRINGTON     CLOUDY    56  31  38 W7        29.60F
PINE BLUFFS    FAIR      54  19  26 W16       29.69F

$$



USA.gov is the U.S. government's official web portal to all federal, state and local government web resources and services.